• In Uzbekistan
  • List of Countries
  • For 7 days
  • Water Temperature
  • Satellite Maps
  • Weather Map
  • Weather Widgets
  • user-avatar
    Login

    Hourly Weather Tibissa

    Today, 22 June, Friday

    Time Temperature Precipitation Wind Pressure Humidity
    00:00 +22°C° 0 mm 1 mps 687 mmHg 61%
    01:00 +22°C° 0 mm 1 mps 686 mmHg 61%
    02:00 +22°C° 0 mm 1 mps 686 mmHg 61%
    03:00 +22°C° 0 mm 1 mps 686 mmHg 60%
    04:00 +22°C° 0 mm 1 mps 686 mmHg 59%
    05:00 +23°C° 0 mm 1 mps 686 mmHg 56%
    06:00 +23°C° 0 mm 1 mps 687 mmHg 53%
    07:00 +24°C° 0 mm 2 mps 687 mmHg 50%
    08:00 +25°C° 0 mm 2 mps 687 mmHg 45%
    09:00 +27°C° 0 mm 3 mps 688 mmHg 40%
    10:00 +28°C° 0 mm 3 mps 688 mmHg 36%
    11:00 +29°C° 0 mm 4 mps 688 mmHg 33%
    12:00 +30°C° 0 mm 4 mps 688 mmHg 31%
    13:00 +30°C° 0 mm 4 mps 688 mmHg 29%
    14:00 +30°C° 0 mm 4 mps 687 mmHg 29%
    15:00 +30°C° 0 mm 3 mps 687 mmHg 30%
    16:00 +30°C° 0 mm 3 mps 687 mmHg 30%
    17:00 +30°C° 0 mm 3 mps 687 mmHg 32%
    18:00 +29°C° 0 mm 3 mps 687 mmHg 33%
    19:00 +29°C° 0 mm 3 mps 687 mmHg 35%
    20:00 +28°C° 0 mm 3 mps 687 mmHg 39%
    21:00 +27°C° 0 mm 3 mps 687 mmHg 42%
    22:00 +26°C° 0 mm 3 mps 687 mmHg 46%
    23:00 +25°C° 0 mm 3 mps 687 mmHg 48%

    Tomorrow, 23 June, Saturday

    Time Temperature Precipitation Wind Pressure Humidity
    00:00 +24°C° 0 mm 2 mps 687 mmHg 51%
    01:00 +23°C° 0 mm 2 mps 687 mmHg 53%
    02:00 +23°C° 0 mm 1 mps 687 mmHg 55%
    03:00 +22°C° 0 mm 1 mps 687 mmHg 56%
    04:00 +22°C° 0 mm 1 mps 687 mmHg 58%
    05:00 +22°C° 0 mm 1 mps 687 mmHg 55%
    06:00 +23°C° 0 mm 1 mps 687 mmHg 52%
    07:00 +23°C° 0 mm 1 mps 687 mmHg 48%
    08:00 +25°C° 0 mm 1 mps 687 mmHg 45%
    09:00 +26°C° 0 mm 1 mps 688 mmHg 41%
    10:00 +28°C° 0 mm 1 mps 688 mmHg 37%
    11:00 +29°C° 0 mm 2 mps 688 mmHg 33%
    12:00 +30°C° 0 mm 3 mps 688 mmHg 30%
    13:00 +33°C° 0 mm 4 mps 688 mmHg 26%
    14:00 +33°C° 0 mm 4 mps 688 mmHg 24%
    15:00 +34°C° 0 mm 5 mps 688 mmHg 23%
    16:00 +34°C° 0 mm 5 mps 687 mmHg 21%
    17:00 +33°C° 0 mm 6 mps 687 mmHg 24%
    18:00 +32°C° 0 mm 6 mps 687 mmHg 26%
    19:00 +30°C° 0 mm 6 mps 687 mmHg 29%
    20:00 +29°C° 0 mm 5 mps 687 mmHg 34%
    21:00 +27°C° 0 mm 4 mps 687 mmHg 38%
    22:00 +26°C° 0 mm 4 mps 687 mmHg 43%
    23:00 +25°C° 0 mm 3 mps 687 mmHg 45%

    Day after tomorrow, 24 June, Sunday

    Time Temperature Precipitation Wind Pressure Humidity
    00:00 +25°C° 0 mm 2 mps 687 mmHg 48%
    01:00 +24°C° 0 mm 1 mps 687 mmHg 50%
    02:00 +23°C° 0 mm 1 mps 686 mmHg 52%
    03:00 +23°C° 0 mm 1 mps 686 mmHg 53%
    04:00 +22°C° 0 mm 1 mps 686 mmHg 54%
    05:00 +23°C° 0 mm 1 mps 686 mmHg 51%
    06:00 +24°C° 0 mm 1 mps 686 mmHg 48%
    07:00 +24°C° 0 mm 1 mps 686 mmHg 45%
    08:00 +26°C° 0 mm 2 mps 687 mmHg 40%
    09:00 +27°C° 0 mm 2 mps 687 mmHg 35%
    10:00 +29°C° 0 mm 3 mps 687 mmHg 30%
    11:00 +30°C° 0 mm 4 mps 687 mmHg 26%
    12:00 +32°C° 0 mm 5 mps 687 mmHg 23%
    13:00 +34°C° 0 mm 6 mps 687 mmHg 20%
    14:00 +34°C° 0 mm 6 mps 687 mmHg 19%
    15:00 +34°C° 0 mm 7 mps 687 mmHg 19%
    16:00 +35°C° 0 mm 7 mps 687 mmHg 18%
    17:00 +34°C° 0 mm 7 mps 686 mmHg 20%
    18:00 +33°C° 0 mm 7 mps 686 mmHg 22%
    19:00 +32°C° 0 mm 6 mps 686 mmHg 24%
    20:00 +30°C° 0 mm 5 mps 686 mmHg 27%
    21:00 +28°C° 0 mm 4 mps 686 mmHg 30%
    22:00 +27°C° 0 mm 2 mps 686 mmHg 34%
    23:00 +26°C° 0 mm 2 mps 686 mmHg 37%

    25 June, Monday

    Time Temperature Precipitation Wind Pressure Humidity
    00:00 +26°C° 0 mm 2 mps 685 mmHg 40%
    01:00 +25°C° 0 mm 1 mps 685 mmHg 43%
    02:00 +24°C° 0 mm 1 mps 685 mmHg 45%
    03:00 +24°C° 0 mm 1 mps 684 mmHg 46%
    04:00 +23°C° 0 mm 1 mps 684 mmHg 48%
    05:00 +24°C° 0 mm 1 mps 684 mmHg 45%
    06:00 +25°C° 0 mm 1 mps 685 mmHg 42%
    07:00 +25°C° 0 mm 2 mps 685 mmHg 39%
    08:00 +27°C° 0 mm 3 mps 685 mmHg 34%
    09:00 +29°C° 0 mm 4 mps 686 mmHg 30%
    10:00 +30°C° 0 mm 5 mps 686 mmHg 25%
    11:00 +33°C° 0 mm 5 mps 686 mmHg 23%
    12:00 +34°C° 0 mm 6 mps 686 mmHg 21%
    13:00 +35°C° 0 mm 7 mps 686 mmHg 19%
    14:00 +35°C° 0 mm 7 mps 686 mmHg 19%
    15:00 +35°C° 0 mm 7 mps 686 mmHg 20%
    16:00 +35°C° 0 mm 8 mps 686 mmHg 20%
    17:00 +34°C° 0 mm 7 mps 686 mmHg 22%
    18:00 +33°C° 0 mm 7 mps 686 mmHg 24%
    19:00 +32°C° 0 mm 7 mps 686 mmHg 27%
    20:00 +29°C° 0 mm 5 mps 686 mmHg 29%
    21:00 +28°C° 0 mm 4 mps 686 mmHg 32%
    22:00 +27°C° 0 mm 3 mps 686 mmHg 35%
    23:00 +26°C° 0 mm 3 mps 686 mmHg 37%

    26 June, Tuesday

    Time Temperature Precipitation Wind Pressure Humidity
    00:00 +25°C° 0 mm 2 mps 686 mmHg 40%
    01:00 +25°C° 0 mm 2 mps 685 mmHg 42%
    02:00 +24°C° 0 mm 2 mps 685 mmHg 44%
    03:00 +23°C° 0 mm 1 mps 685 mmHg 46%
    04:00 +23°C° 0 mm 1 mps 685 mmHg 48%
    05:00 +23°C° 0 mm 1 mps 685 mmHg 46%
    06:00 +24°C° 0 mm 1 mps 685 mmHg 44%
    07:00 +24°C° 0 mm 1 mps 685 mmHg 42%
    08:00 +25°C° 0 mm 1 mps 686 mmHg 38%
    09:00 +27°C° 0 mm 1 mps 686 mmHg 34%
    10:00 +28°C° 0 mm 1 mps 686 mmHg 30%
    11:00 +29°C° 0 mm 2 mps 686 mmHg 28%
    12:00 +31°C° 0 mm 3 mps 686 mmHg 26%
    13:00 +33°C° 0 mm 3 mps 686 mmHg 24%
    14:00 +34°C° 0 mm 4 mps 686 mmHg 23%
    15:00 +34°C° 0 mm 5 mps 686 mmHg 22%
    16:00 +35°C° 0 mm 5 mps 686 mmHg 21%
    17:00 +34°C° 0 mm 5 mps 686 mmHg 22%
    18:00 +33°C° 0 mm 6 mps 686 mmHg 24%
    19:00 +33°C° 0 mm 6 mps 686 mmHg 26%
    20:00 +30°C° 0 mm 5 mps 686 mmHg 29%
    21:00 +29°C° 0 mm 4 mps 686 mmHg 33%
    22:00 +27°C° 0 mm 3 mps 687 mmHg 37%
    23:00 +27°C° 0 mm 3 mps 686 mmHg 40%

    27 June, Wednesday

    Time Temperature Precipitation Wind Pressure Humidity
    00:00 +26°C° 0 mm 3 mps 686 mmHg 44%
    01:00 +25°C° 0 mm 2 mps 685 mmHg 48%
    02:00 +24°C° 0 mm 2 mps 685 mmHg 51%
    03:00 +24°C° 0 mm 1 mps 685 mmHg 53%
    04:00 +23°C° 0 mm 1 mps 685 mmHg 55%
    05:00 +24°C° 0 mm 1 mps 685 mmHg 53%
    06:00 +24°C° 0 mm 1 mps 685 mmHg 51%
    07:00 +25°C° 0 mm 1 mps 686 mmHg 49%
    08:00 +26°C° 0 mm 1 mps 686 mmHg 43%
    09:00 +28°C° 0 mm 1 mps 686 mmHg 38%
    10:00 +29°C° 0 mm 1 mps 687 mmHg 33%
    11:00 +30°C° 0 mm 2 mps 687 mmHg 30%
    12:00 +31°C° 0 mm 2 mps 686 mmHg 27%
    13:00 +32°C° 0 mm 2 mps 686 mmHg 25%
    14:00 +34°C° 0 mm 3 mps 686 mmHg 24%
    15:00 +35°C° 0 mm 3 mps 686 mmHg 23%
    16:00 +35°C° 0 mm 3 mps 686 mmHg 22%
    17:00 +34°C° 0 mm 4 mps 686 mmHg 23%
    18:00 +34°C° 0 mm 4 mps 686 mmHg 25%
    19:00 +33°C° 0 mm 5 mps 686 mmHg 26%
    20:00 +32°C° 0.1 mm 5 mps 686 mmHg 30%
    21:00 +29°C° 0.1 mm 5 mps 686 mmHg 35%
    22:00 +28°C° 0.1 mm 5 mps 687 mmHg 39%
    23:00 +27°C° 0 mm 4 mps 686 mmHg 42%
    Show more